SCP
0 0 0 0 0 0 0 0 0 0 0 0 0 0 0 0 0 0 0 0 0 0 0 0 0 0 0 0 0 0 0 0 0 0 0 0 0 0 0 0 0 0 0 0
0 0 0 0 0 0 0 0 0 0 0 0 0 0 0 0 0 0 0 0 0 0 0 0 0 0 0 0 0 0 0 0 0 0 0 0 0 0 0 0 0 0 0 0
0 0 0 0 0 0 0 0 0 0 0 0 0 0 0 0 0 0 0 0 0 0 0 0 0 0 0 0 0 0 0 0 0 0 0 0 0 0 0 0 0 0 0 0
0 0 0 0 0 0 0 0 0 0 0 0 0 0 0 0 0 0 0 0 0 0 0 0 0 0 0 0 0 0 0 0 0 0 0 0 0 0 0 0 0 0 0 0
0 0 0 0 0 0 0 0 0 0 0 0 0 0 0 0 0 0 0 0 0 0 0 0 0 0 0 0 0 0 0 0 0 0 0 0 0 0 0 0 0 0 0 0
0 0 0 0 0 0 0 0 0 0 0 0 0 0 0 0 0 0 0 0 0 0 0 0 0 0 0 0 0 0 0 0 0 0 0 0 0 0 0 0 0 0 0 0
0 0 0 0 0 0 0 0 0 0 0 0 0 0 0 0 0 0 0 0 0 0 0 0 0 0 0 0 0 0 0 0 0 0 0 0 0 0 0 0 0 0 0 0
0 0 0 0 0 0 0 0 0 0 0 0 0 0 0 0 0 0 0 0 0 0 0 0 0 0 0 0 0 0 0 0 0 0 0 0 0 0 0 0 0 0 0 0
0 0 0 0 0 0 0 0 0 0 0 0 0 0 0 0 0 0 0 0 0 0 0 0 0 0 0 0 0 0 0 0 0 0 0 0 0 0 0 0 0 0 0 0
0 0 0 0 0 0 0 0 0 0 0 0 0 0 0 0 0 0 0 0 0 0 0 0 0 0 0 0 0 0 0 0 0 0 0 0 0 0 0 0 0 0 0 0
0 0 0 0 0 0 0 0 0 0 0 0 0 0 0 0 0 0 0 0 0 0 0 0 0 0 0 0 0 0 0 0 0 0 0 0 0 0 0 0 0 0 0 0
0 0 0 0 0 0 0 0 0 0 0 0 0 0 0 0 0 0 0 0 0 0 0 0 0 0 0 0 0 0 0 0 0 0 0 0 0 0 0 0 0 0 0 0
0 0 0 0 0 0 0 0 0 0 0 0 0 0 0 0 0 0 0 0 0 0 0 0 0 0 0 0 0 0 0 0 0 0 0 0 0 0 0 0 0 0 0 0
0 0 0 0 0 0 0 0 0 0 0 0 0 0 0 0 0 0 0 0 0 0 0 0 0 0 0 0 0 0 0 0 0 0 0 0 0 0 0 0 0 0 0 0
0 0 0 0 0 0 0 0 0 0 0 0 0 0 0 0 0 0 0 0 0 0 0 0 0 0 0 0 0 0 0 0 0 0 0 0 0 0 0 0 0 0 0 0
0 0 0 0 0 0 0 0 0 0 0 0 0 0 0 0 0 0 0 0 0 0 0 0 0 0 0 0 0 0 0 0 0 0 0 0 0 0 0 0 0 0 0 0
0 0 0 0 0 0 0 0 0 0 0 0 0 0 0 0 0 0 0 0 0 0 0 0 0 0 0 0 0 0 0 0 0 0 0 0 0 0 0 0 0 0 0 0
0 0 0 0 0 0 0 0 0 0 0 0 0 0 0 0 0 0 0 0 0 0 0 0 0 0 0 0 0 0 0 0 0 0 0 0 0 0 0 0 0 0 0 0
0 0 0 0 0 0 0 0 0 0 0 0 0 0 0 0 0 0 0 0 0 0 0 0 0 0 0 0 0 0 0 0 0 0 0 0 0 0 0 0 0 0 0 0
0 0 0 0 0 0 0 0 0 0 0 0 0 0 0 0 0 0 0 0 0 0 0 0 0 0 0 0 0 0 0 0 0 0 0 0 0 0 0 0 0 0 0 0
0 0 0 0 0 0 0 0 0 0 0 0 0 0 0 0 0 0 0 0 0 0 0 0 0 0 0 0 0 0 0 0 0 0 0 0 0 0 0 0 0 0 0 0
0 0 0 0 0 0 0 0 0 0 0 0 0 0 0 0 0 0 0 0 0 0 0 0 0 0 0 0 0 0 0 0 0 0 0 0 0 0 0 0 0 0 0 0
0 0 0 0 0 0 0 0 0 0 0 0 0 0 0 0 0 0 0 0 0 0 0 0 0 0 0 0 0 0 0 0 0 0 0 0 0 0 0 0 0 0 0 0
0 0 0 0 0 0 0 0 0 0 0 0 0 0 0 0 0 0 0 0 0 0 0 0 0 0 0 0 0 0 0 0 0 0 0 0 0 0 0 0 0 0 0 0
0 0 0 0 0 0 0 0 0 0 0 0 0 0 0 0 0 0 0 0 0 0 0 0 0 0 0 0 0 0 0 0 0 0 0 0 0 0 0 0 0 0 0 0
-0 -0 0 0 0 0 0 0 0 0 0 0 0 0 0 0 0 0 0 0 0 0 0 0 0 0 0 0 0 0 0 0 0 0 0 0 0 0 0 0 0 0 0 0
Wind_Speed
6 5 5 4 4 5 5 5 4 1 2 2 4 4 4 6 6 5 5 5 5 5 7 6 6 6 5 4 3 5 6 5 3 2 2 2 2 2 2 2 3 2 2 3
6 6 5 4 3 5 6 6 5 2 1 3 5 5 4 6 6 6 5 5 5 5 6 6 6 6 5 4 3 5 5 5 4 2 2 2 2 2 2 1 2 2 3 3
7 3 3 5 5 7 7 5 5 4 4 5 6 6 5 7 7 6 4 4 5 6 7 7 6 5 5 4 3 3 5 5 5 4 2 2 2 2 2 1 1 2 3 2
6 4 4 6 6 6 5 3 5 6 4 4 4 3 4 6 7 6 5 4 3 4 5 6 6 6 5 4 2 3 4 4 5 4 3 3 2 1 1 2 2 1 2 2
5 4 5 7 5 5 4 5 7 8 7 7 7 6 3 7 7 7 7 6 4 4 5 6 6 6 5 4 3 2 4 4 4 3 3 2 2 1 1 2 2 1 1 2
7 5 5 4 3 5 5 7 9 7 6 7 8 6 2 4 5 6 6 7 6 5 6 6 6 6 5 5 3 3 3 3 3 3 3 3 2 2 2 2 2 1 1 1
8 8 6 4 6 6 7 6 4 4 5 5 4 3 2 5 5 4 4 5 7 6 7 6 6 6 6 5 4 3 4 3 2 2 2 3 2 2 3 2 2 1 1 1
7 6 6 5 5 5 6 7 4 4 3 2 2 2 4 6 6 5 4 4 6 7 6 7 7 6 6 6 5 4 4 3 3 2 2 2 3 2 1 1 2 2 1 1
5 1 3 3 3 6 6 5 5 7 8 6 3 2 4 6 6 5 4 4 5 6 7 7 7 6 6 6 5 4 4 3 3 3 2 2 2 2 1 1 1 1 1 1
6 5 3 3 4 7 7 7 5 4 4 5 4 2 4 6 5 4 3 3 4 5 5 6 6 6 5 5 5 4 4 4 3 2 2 1 2 2 2 1 1 1 1 1
7 7 4 5 6 6 6 6 6 5 5 4 4 1 3 5 5 4 3 3 3 4 5 5 5 5 5 5 5 4 4 4 3 3 2 2 2 2 2 2 1 1 1 1
4 5 7 6 2 2 5 6 6 5 5 5 4 1 4 5 5 4 3 2 3 4 4 4 5 5 5 5 5 4 4 4 4 3 3 2 2 2 2 2 2 2 2 1
5 5 6 3 3 3 4 5 6 7 6 5 5 0 4 4 4 3 2 2 2 4 5 4 4 4 4 5 5 4 4 4 4 3 3 3 2 2 2 2 2 2 1 1
4 7 8 7 6 4 5 7 7 7 6 7 7 2 1 2 3 3 3 2 2 2 3 3 3 3 3 4 4 4 4 4 4 4 3 3 3 3 2 2 2 2 1 1
5 8 10 9 9 9 9 9 9 10 9 9 8 6 3 3 4 4 3 3 2 1 1 2 3 3 3 4 4 4 4 3 4 4 4 4 3 3 2 2 2 2 1 1
6 8 9 10 11 10 12 11 11 11 10 10 8 5 3 4 4 4 5 5 4 3 2 0 2 3 3 4 4 3 4 4 3 4 4 3 3 3 3 2 2 2 1 1
5 7 8 9 9 9 10 8 8 7 7 6 6 3 3 4 5 5 5 5 5 5 5 3 2 2 3 3 3 3 3 3 4 3 3 2 2 2 2 2 2 2 2 2
7 7 5 7 8 10 2 3 2 2 3 3 2 3 4 3 3 5 4 5 6 6 6 5 4 3 2 1 2 2 2 3 4 4 3 3 3 3 2 2 3 3 2 2
7 6 5 6 8 9 3 1 1 2 2 3 2 2 3 3 1 3 6 6 5 5 5 5 4 4 3 2 1 2 2 2 3 3 3 2 3 3 3 3 3 2 2 2
6 6 6 6 7 7 1 3 3 2 1 3 3 3 3 3 2 2 6 6 6 5 5 5 5 4 3 3 1 2 3 3 3 3 3 3 3 4 4 4 3 2 2 3
6 6 8 8 8 5 2 2 1 2 1 3 3 4 4 3 3 3 5 5 5 5 5 5 5 4 3 2 1 2 2 2 2 1 2 3 3 4 4 3 3 3 3 3
5 5 6 6 8 4 2 1 1 2 2 2 3 3 3 3 3 4 4 4 5 5 6 5 5 5 4 3 1 2 3 2 1 1 2 3 3 3 3 3 3 3 3 3
4 3 2 3 2 2 3 3 3 3 3 3 3 3 3 3 3 3 3 3 4 5 5 5 5 5 4 3 2 3 2 1 1 1 2 3 3 3 3 4 4 3 3 3
4 3 4 4 2 2 2 3 3 3 3 3 3 3 3 4 3 3 3 3 3 4 4 5 5 5 4 4 3 3 1 0 1 2 3 3 3 2 3 3 3 3 3 3
5 4 5 6 4 4 3 2 3 4 4 4 4 4 4 4 4 4 4 4 3 4 4 4 4 5 5 4 4 3 2 1 1 2 2 3 2 2 2 2 3 4 3 4
6 6 6 5 4 4 4 4 4 4 4 4 4 4 4 4 5 4 4 4 4 4 4 4 5 5 5 4 4 3 2 1 2 2 2 2 2 2 2 2 1 2 3 4
Wind_Direction
224 236 245 246 254 283 301 294 288 238 201 249 260 256 202 179 197 207 195 184 173 160 150 139 134 137 134 137 132 124 131 129 118 112 106 109 102 102 86 78 79 56 58 68
240 235 252 271 275 275 274 277 283 254 234 264 265 260 220 183 196 209 204 185 173 159 146 141 147 139 132 128 136 137 129 127 124 123 115 122 122 115 103 81 81 66 59 60
240 257 253 254 249 259 267 282 309 316 314 277 272 258 213 185 190 186 195 185 170 163 156 155 149 133 129 130 145 131 130 133 134 127 110 96 81 73 88 102 89 68 69 55
252 247 267 258 257 268 284 322 301 288 283 274 254 277 211 189 182 177 181 187 168 151 144 143 140 133 135 133 140 134 128 128 124 125 125 131 140 145 151 138 130 119 110 104
258 240 252 260 275 290 296 302 287 281 279 278 260 251 211 172 182 181 178 171 160 145 141 138 132 130 128 122 115 105 107 112 113 125 133 140 142 165 148 127 120 131 122 110
258 261 264 282 293 278 281 273 267 255 256 258 251 243 194 180 169 161 161 163 160 150 138 131 125 126 122 116 114 101 99 101 118 149 155 169 162 159 144 142 144 142 116 94
241 229 223 238 263 242 248 264 271 238 219 237 233 228 145 115 114 123 144 153 150 146 141 138 134 139 138 137 139 134 125 130 154 175 174 179 164 155 138 140 136 135 142 142
247 229 197 201 245 269 260 259 262 282 283 297 239 219 119 114 115 122 130 136 141 144 143 144 143 144 144 146 152 156 151 157 166 184 187 179 141 122 112 144 142 156 165 177
291 274 138 181 243 265 274 269 275 277 286 286 252 143 135 129 116 117 127 133 139 144 145 146 146 152 152 151 156 163 159 166 169 186 188 150 127 124 131 160 128 140 166 166
288 293 230 187 227 236 258 288 294 281 286 284 272 218 161 138 130 133 127 123 133 142 142 147 147 152 150 150 161 170 173 178 172 175 182 177 154 148 155 178 154 189 199 169
277 273 243 203 220 247 228 242 256 268 268 274 291 38 91 127 127 126 114 127 143 145 148 150 145 150 146 148 167 179 180 175 169 180 194 189 171 174 171 171 177 212 212 185
284 289 272 242 200 269 276 268 271 272 282 290 295 61 94 96 101 109 112 124 131 138 140 142 144 152 150 159 175 184 187 177 173 185 194 202 183 179 181 180 184 219 235 211
331 278 277 248 192 211 255 257 266 276 278 273 277 184 110 102 96 82 80 99 117 134 137 137 143 158 159 166 178 185 193 180 173 187 200 203 190 199 205 198 183 205 213 206
308 273 271 281 306 305 274 273 268 268 271 274 276 282 140 88 73 53 37 53 84 125 139 149 157 168 172 177 187 189 196 179 171 184 203 205 202 201 195 199 181 198 197 201
259 270 274 279 286 286 278 272 266 262 264 274 293 309 342 43 56 40 24 22 35 35 135 161 172 185 188 187 200 201 185 180 180 187 207 208 206 195 184 188 191 197 185 210
248 272 283 282 276 272 273 268 264 262 267 274 281 295 31 47 49 35 15 9 10 358 353 317 211 209 204 199 203 208 191 183 188 196 209 204 200 189 181 189 188 175 184 211
246 266 280 279 282 278 264 265 252 254 262 276 287 333 30 42 32 27 16 9 0 6 358 342 314 265 235 213 202 219 199 185 195 204 206 195 184 181 189 194 187 190 197 204
268 268 268 275 278 260 257 37 9 328 322 332 340 26 28 38 53 47 31 26 7 359 353 344 331 320 310 241 212 216 185 194 201 202 196 188 183 186 192 196 192 200 196 199
253 263 266 263 267 268 255 353 350 293 290 342 358 38 26 25 71 53 31 25 11 359 350 341 334 326 320 294 213 205 208 215 210 201 192 200 197 198 199 206 207 197 189 207
238 252 256 262 267 269 32 39 8 292 248 44 33 28 10 5 334 24 21 12 0 359 351 343 336 329 319 312 261 213 226 213 218 207 200 204 200 205 208 207 206 204 200 206
214 228 234 250 260 271 40 40 340 258 66 49 27 19 8 354 1 13 10 -0 351 351 345 343 338 329 313 310 285 247 248 232 228 224 218 207 202 209 213 202 196 200 203 205
224 233 232 238 245 251 72 127 323 34 50 12 10 9 0 356 17 8 360 353 341 342 342 341 337 333 334 327 297 259 260 252 204 210 234 221 210 212 214 193 196 200 202 205
233 249 264 260 270 19 40 29 17 19 3 0 8 359 351 340 340 340 339 335 321 328 336 335 331 329 335 337 320 278 279 285 228 225 248 235 217 208 200 197 199 199 203 210
268 286 274 270 253 287 335 351 351 353 349 350 344 334 332 323 322 317 313 311 319 326 326 326 326 320 321 328 319 303 303 280 271 252 249 245 219 204 204 204 195 195 199 209
293 293 273 271 280 287 285 327 340 335 330 328 333 332 329 319 318 316 315 318 318 317 316 319 315 310 312 322 323 319 310 308 284 283 272 255 235 209 211 216 211 207 209 208
256 262 262 265 278 293 299 315 323 320 317 317 318 317 316 314 311 310 309 310 309 308 312 314 313 312 310 314 321 323 322 321 294 287 288 274 254 225 201 198 225 235 221 218